Regional Weather Roundup
Issued by NWS

Home | Current Version | Previous Version | Graphics & Text | Print | Product List | Glossary On
Versions: 1 2 3 4 5 6 7 8 9 10 11 12 13 14 15 16 17 18 19 20 21 22 23 24 25 26 27 28 29 30 31 32 33 34 35 36 37 38 39 40 41 42 43 44 45 46 47 48 49 50
000
ASUS43 KLSX 061207
RWRMO

WEATHER SUMMARY FOR MISSOURI
NATIONAL WEATHER SERVICE SPRINGFIELD MO
600 AM CST TUE DEC 06 2016

NOTE: "FAIR" INDICATES FEW OR NO CLOUDS BELOW 12,000 FEET WITH NO
       SIGNIFICANT WEATHER AND/OR OBSTRUCTIONS TO VISIBILITY.
       CURRENT SKY AND/OR WEATHER CONDITIONS ARE NOT AVAILABLE FOR
       CHILLICOTHE AND FARMINGTON.

MOZ001>031-035>038-043-044-053-054-061300-
...NORTHERN AND WESTERN MISSOURI...

CITY           SKY/WX    TMP DP  RH WIND       PRES   REMARKS
KANSAS CTY INT CLOUDY    33  26  75 N15       29.91R WCI  23
6HR MIN TEMP:  33; 6HR MAX TEMP:  38;

KANSAS C DTWN  MOCLDY    36  27  69 NW13G21   29.91R WCI  27
6HR MIN TEMP:  34; 6HR MAX TEMP:  40;

LEE`S SUMMIT   PTCLDY    34  25  69 N22G29    29.89R WCI  22
6HR MIN TEMP:  29; 6HR MAX TEMP:  38;

ST JOSEPH      CLOUDY    32  24  72 N17       29.95R WCI  21
6HR MIN TEMP:  32; 6HR MAX TEMP:  40;

CHILLICOTHE      N/A     36  33  89 NW7       29.86R
6HR MIN TEMP:  28; 6HR MAX TEMP:  36; 6HR PCP:  0.01;

KIRKSVILLE     CLOUDY    35  35 100 NW5       29.82R FOG
6HR MIN TEMP:  34; 6HR MAX TEMP:  36;


$$
MOZ066>068-077>081-088>096-101>105-061300-
...SOUTHWEST MISSOURI...

CITY           SKY/WX    TMP DP  RH WIND       PRES   REMARKS
SPRINGFIELD    CLOUDY    35  33  92 NW13      29.79R FOG     WCI  26
6HR MIN TEMP:  34; 6HR MAX TEMP:  41;

JOPLIN         CLOUDY    37  36  96 NW8       29.86R FOG
6HR MIN TEMP:  30; 6HR MAX TEMP:  37;

BRANSON        CLEAR     39  39 100 NW7       29.79R

$$
MOZ032>034-039>042-045>050-055>058-069>072-061300-
...CENTRAL MISSOURI...

CITY           SKY/WX    TMP DP  RH WIND       PRES   REMARKS
COLUMBIA       FOG       30  30 100 NW7       29.80R VSB 1/4 WCI  23
6HR MIN TEMP:  29; 6HR MAX TEMP:  35;

JEFFERSON CITY FOG       31  31 100 NW6       29.82R VSB 1/4 WCI  25
6HR MIN TEMP:  31; 6HR MAX TEMP:  36;

ROLLA          FOG       34  34 100 NW6       29.76R VSB 1/4 WCI  29
6HR MIN TEMP:  33; 6HR MAX TEMP:  38;

SEDALIA        MOCLDY    32  31  96 NW7       29.84R WCI  26
6HR MIN TEMP:  27; 6HR MAX TEMP:  34;

WHITEMAN AFB   CLOUDY    32  32 100 N10       29.83R WCI  24
WARRENSBURG    CLOUDY    36  34  93 NW7       29.85R WCI  30
OSAGE BEACH    CLEAR     34  33  96 W7        29.81R WCI  28

$$
MOZ051-052-059>065-061300-
...EAST CENTRAL MISSOURI...

CITY           SKY/WX    TMP DP  RH WIND       PRES   REMARKS
ST LOUIS INTL  CLOUDY    39  34  82 N8        29.76R
6HR MIN TEMP:  38; 6HR MAX TEMP:  39; 6HR PCP: TRACE;

SPIRIT OF STL  CLOUDY    38  36  92 NW7       29.77R
6HR MIN TEMP:  36; 6HR MAX TEMP:  38; 6HR PCP: TRACE;

ST CHARLES     CLOUDY    37  35  92 N10       29.77R WCI  30
6HR MIN TEMP:  37; 6HR MAX TEMP:  38;


$$
MOZ072>076-082>087-097>100-106>115-061300-
...SOUTH CENTRAL AND SOUTHEAST MISSOURI...

CITY           SKY/WX    TMP DP  RH WIND       PRES   REMARKS
CAPE GIRARDEAU CLOUDY    40  38  93 N7        29.69F
6HR MIN TEMP:  40; 6HR MAX TEMP:  41; 6HR PCP:  0.60;

FARMINGTON     CLOUDY    38  36  92 NW8       29.73R FOG
6HR MIN TEMP:  37; 6HR MAX TEMP:  38; 6HR PCP:  0.01;

POPLAR BLUFF   CLOUDY    41  40  96 NW7       29.72R
6HR MIN TEMP:  40; 6HR MAX TEMP:  41; 6HR PCP:  0.48;

WEST PLAINS    MOCLDY    39  38  96 NW9       29.76R
6HR MIN TEMP:  38; 6HR MAX TEMP:  40; 6HR PCP:  0.05;


$$


USA.gov is the U.S. government's official web portal to all federal, state and local government web resources and services.